CZ-2C R/B - Orbit

View from above orbital plane
View from above orbital plane
View from above satellite
View from above satellite

Ground track
Ground track

The orbit data is extracted from the following two-line orbital elements,

1 36089U 09061B   13137.14493855  .00000282  00000-0  83237-4 0   468
2 36089 098.1540 179.3493 0081803 315.2420 110.3747 14.48897215185598
Epoch (UTC): 17 May 2013 03:28:42
Eccentricity: 0.0081803
inclination: 98.1540°
perigee height: 671 km
apogee height: 787 km
right ascension of ascending node: 179.3493°
argument of perigee: 315.2420°
revolutions per day: 14.48897215
mean anomaly at epoch: 110.3747°
orbit number at epoch: 18559

The dashed part of the orbit path shows where the satellite is in the earth's shadow,  

Developed and maintained by Chris Peat, Heavens-Above GmbH. Please read the updated FAQ before sending e-mail. Imprint. DLR